Location: Ambatotampy
(18.8181°S, 47.6186°E)
Time: 23:35:40
(UTC+00:00)

Meteor 1-31 Rocket - Pass Details

Date: 21 January 2021
Orbit: 521 x 545 km, 97.6° (Epoch: 24 February)

Event Time Altitude Azimuth Distance (km) Brightness Sun altitude
Exits shadow 00:42:33 - 29° (NNE) 2,576 6.2 -23.3°
Reaches altitude 10° 00:44:29 10° 37° (NE) 1,809 5.5 -22.9°
Maximum altitude 00:48:06 36° 104° (ESE) 875 4.3 -22.2°
Drops below altitude 10° 00:51:44 10° 171° (S) 1,827 6.0 -21.4°
Sets 00:53:59 0° 179° (S) 2,724 6.8 -21.0°
